This is the latest recevied weather packets stored in our database for station/object TULLARI. If no packets are shown the sender has not sent any weather packets the latest 10 day(s).
| Time | Temp. | Humidity | Pressure | Rain* | Wind** | Luminosity | Snow |
|---|---|---|---|---|---|---|---|
| 1777895239 | 6.11° C | 95% | 1003.1 hPa | - | - | - | - |
| 1777894038 | 6.67° C | 95% | 1002.9 hPa | - | - | - | - |
| 1777892840 | 6.11° C | 94% | 1003.1 hPa | - | - | - | - |
| 1777891638 | 5.56° C | 94% | 1003.3 hPa | - | - | - | - |
| 1777890439 | 5.56° C | 94% | 1003.4 hPa | - | - | - | - |
| 1777889238 | 5° C | 94% | 1003.6 hPa | - | - | - | - |
| 1777888038 | 5° C | 93% | 1003.8 hPa | - | - | - | - |
| 1777886839 | 5° C | 93% | 1004.1 hPa | - | - | - | - |
| 1777885638 | 5.56° C | 93% | 1004.3 hPa | - | - | - | - |
| 1777884438 | 5.56° C | 87% | 1004.7 hPa | - | - | - | - |
| 1777883239 | 5.56° C | 89% | 1004.8 hPa | - | - | - | - |
| 1777882038 | 5.56° C | 88% | 1005 hPa | - | - | - | - |
| 1777880838 | 6.11° C | 90% | 1005.1 hPa | - | - | - | - |
| 1777879638 | 6.11° C | 82% | 1005.2 hPa | - | - | - | - |
| 1777878438 | 6.67° C | 68% | 1005.2 hPa | - | - | - | - |
| 1777877238 | 6.67° C | 61% | 1005 hPa | - | - | - | - |
| 1777876038 | 6.67° C | 66% | 1004.7 hPa | - | - | - | - |
| 1777874837 | 6.67° C | 68% | 1004.8 hPa | - | - | - | - |
| 1777873638 | 6.67° C | 68% | 1004.8 hPa | - | - | - | - |
| 1777872438 | 6.67° C | 66% | 1005 hPa | - | - | - | - |
| 1777871238 | 6.67° C | 77% | 1005.5 hPa | - | - | - | - |
| 1777870037 | 5.56° C | 86% | 1005.8 hPa | - | - | - | - |
| 1777868837 | 5.56° C | 78% | 1005.9 hPa | - | - | - | - |
| 1777867638 | 5.56° C | 86% | 1006.1 hPa | - | - | - | - |
| 1777866438 | 5° C | 87% | 1006.2 hPa | - | - | - | - |
* Rain since midnight (hover to see other rain measurements)
** Current wind speed in m/s (hover to see current wind gust speed)